| time (UTC) | temp C | wind direction | speed KPH | gust KPH | rain 1hr cm | rain 24hr cm | rain mn cm | humidity % | barometer mb |
| 20260506155807 | 16 | 92 | 1.6 | 9.7 | 0.00 | 0.00 | 0.00 | 74 | 1022.5 |
| 20260506155306 | 16 | 215 | 4.8 | 4.8 | 0.00 | 0.00 | 0.00 | 74 | 1022.8 |
| 20260506153416 | 15 | 206 | 4.8 | 6.4 | 0.00 | 0.00 | 0.00 | 77 | 1022.9 |
| 20260506152914 | 15 | 175 | 4.8 | 11.3 | 0.00 | 0.00 | 0.00 | 77 | 1022.8 |
| 20260506152410 | 15 | 188 | 3.2 | 4.8 | 0.00 | 0.00 | 0.00 | 78 | 1022.8 |
| 20260506151909 | 15 | 210 | 3.2 | 4.8 | 0.00 | 0.00 | 0.00 | 78 | 1022.7 |
| 20260506151405 | 14 | 213 | 3.2 | 6.4 | 0.00 | 0.00 | 0.00 | 78 | 1022.7 |
| 20260506150903 | 14 | 237 | 4.8 | 9.7 | 0.00 | 0.00 | 0.00 | 78 | 1022.7 |
| 20260506150359 | 15 | 346 | 3.2 | 6.4 | 0.00 | 0.00 | 0.00 | 78 | 1022.7 |
| 20260506145856 | 15 | 87 | 0.0 | 1.6 | 0.00 | 0.00 | 0.00 | 78 | 1022.7 |
| 20260506145352 | 14 | 73 | 0.0 | 0.0 | 0.00 | 0.00 | 0.00 | 78 | 1022.7 |
| 20260506144850 | 14 | 222 | 1.6 | 1.6 | 0.00 | 0.00 | 0.00 | 78 | 1022.7 |
| 20260506144346 | 14 | 162 | 1.6 | 4.8 | 0.00 | 0.00 | 0.00 | 79 | 1022.7 |
| 20260506143845 | 14 | 134 | 0.0 | 3.2 | 0.00 | 0.00 | 0.00 | 79 | 1022.7 |
| 20260506143341 | 13 | 201 | 1.6 | 3.2 | 0.00 | 0.00 | 0.00 | 80 | 1022.5 |
| 20260506142840 | 13 | 198 | 0.0 | 1.6 | 0.00 | 0.00 | 0.00 | 80 | 1022.4 |
| 20260506142337 | 13 | 83 | 0.0 | 1.6 | 0.00 | 0.00 | 0.00 | 80 | 1022.5 |
| 20260506141835 | 13 | 98 | 0.0 | 3.2 | 0.00 | 0.00 | 0.00 | 80 | 1022.4 |
| 20260506141333 | 13 | 189 | 3.2 | 6.4 | 0.00 | 0.00 | 0.00 | 80 | 1022.4 |
| 20260506140831 | 13 | 348 | 0.0 | 1.6 | 0.00 | 0.00 | 0.00 | 80 | 1022.3 |
| 20260506140327 | 13 | 121 | 1.6 | 3.2 | 0.00 | 0.00 | 0.00 | 80 | 1022.1 |
| 20260506135824 | 13 | 10 | 0.0 | 0.0 | 0.00 | 0.00 | 0.00 | 80 | 1022.2 |
| 20260506135321 | 13 | 107 | 0.0 | 3.2 | 0.00 | 0.00 | 0.00 | 81 | 1022.1 |
| 20260506134817 | 13 | 57 | 0.0 | 1.6 | 0.00 | 0.00 | 0.00 | 81 | 1022.1 |
| 20260506134314 | 13 | 283 | 0.0 | 1.6 | 0.00 | 0.00 | 0.00 | 81 | 1022.0 |
| 20260506133811 | 13 | 66 | 0.0 | 0.0 | 0.00 | 0.00 | 0.00 | 82 | 1022.0 |
| 20260506133308 | 13 | 15 | 0.0 | 0.0 | 0.00 | 0.00 | 0.00 | 82 | 1021.9 |
| 20260506132804 | 13 | 37 | 0.0 | 0.0 | 0.00 | 0.00 | 0.00 | 81 | 1021.9 |
| 20260506132302 | 13 | 140 | 0.0 | 0.0 | 0.00 | 0.00 | 0.00 | 82 | 1021.9 |
| 20260506131800 | 13 | 24 | 0.0 | 0.0 | 0.00 | 0.00 | 0.00 | 81 | 1022.0 |
| 20260506131255 | 13 | 22 | 0.0 | 0.0 | 0.00 | 0.00 | 0.00 | 82 | 1021.9 |
| 20260506130752 | 13 | 45 | 0.0 | 0.0 | 0.00 | 0.00 | 0.00 | 81 | 1021.9 |
| 20260506130249 | 13 | 52 | 1.6 | 3.2 | 0.00 | 0.00 | 0.00 | 81 | 1021.9 |
| 20260506125747 | 13 | 32 | 0.0 | 0.0 | 0.00 | 0.00 | 0.00 | 81 | 1021.8 |
| 20260506125245 | 13 | 12 | 0.0 | 0.0 | 0.00 | 0.00 | 0.00 | 81 | 1021.7 |
| 20260506124743 | 13 | 1 | 0.0 | 0.0 | 0.00 | 0.00 | 0.00 | 81 | 1021.7 |
| 20260506124240 | 13 | 50 | 0.0 | 0.0 | 0.00 | 0.00 | 0.00 | 81 | 1021.7 |
| 20260506123738 | 13 | 69 | 1.6 | 3.2 | 0.00 | 0.00 | 0.00 | 80 | 1021.7 |
| 20260506123237 | 13 | 78 | 0.0 | 0.0 | 0.00 | 0.00 | 0.00 | 81 | 1021.6 |
| 20260506122733 | 13 | 57 | 0.0 | 0.0 | 0.00 | 0.00 | 0.00 | 81 | 1021.6 |
| 20260506122230 | 13 | 50 | 0.0 | 0.0 | 0.00 | 0.00 | 0.00 | 80 | 1021.7 |
| 20260506121728 | 13 | 2 | 0.0 | 4.8 | 0.00 | 0.00 | 0.00 | 80 | 1021.7 |
| 20260506121225 | 13 | 36 | 1.6 | 1.6 | 0.00 | 0.00 | 0.00 | 80 | 1021.6 |
| 20260506120722 | 13 | 350 | 3.2 | 3.2 | 0.00 | 0.00 | 0.00 | 80 | 1021.7 |
| 20260506120220 | 13 | 76 | 0.0 | 1.6 | 0.00 | 0.00 | 0.00 | 80 | 1021.5 |
| 20260506115717 | 13 | 58 | 0.0 | 0.0 | 0.00 | 0.00 | 0.00 | 80 | 1021.6 |
| 20260506115215 | 13 | 74 | 0.0 | 0.0 | 0.00 | 0.00 | 0.00 | 80 | 1021.5 |
| 20260506114713 | 13 | 53 | 0.0 | 0.0 | 0.00 | 0.00 | 0.00 | 80 | 1021.4 |
| 20260506114210 | 13 | 54 | 0.0 | 1.6 | 0.00 | 0.00 | 0.00 | 80 | 1021.6 |
| 20260506113708 | 13 | 153 | 3.2 | 3.2 | 0.00 | 0.00 | 0.00 | 80 | 1021.3 |
| 20260506113206 | 13 | 55 | 0.0 | 0.0 | 0.00 | 0.00 | 0.00 | 81 | 1021.2 |
| 20260506112702 | 13 | 65 | 0.0 | 0.0 | 0.00 | 0.00 | 0.00 | 81 | 1021.3 |
| 20260506112200 | 13 | 13 | 0.0 | 0.0 | 0.00 | 0.00 | 0.00 | 81 | 1021.3 |
| 20260506111657 | 13 | 8 | 0.0 | 0.0 | 0.00 | 0.00 | 0.00 | 81 | 1021.4 |
| 20260506111154 | 13 | 6 | 3.2 | 4.8 | 0.00 | 0.00 | 0.00 | 81 | 1021.0 |
| 20260506110651 | 13 | 358 | 0.0 | 1.6 | 0.00 | 0.00 | 0.00 | 80 | 1021.3 |
| 20260506110149 | 13 | 336 | 0.0 | 9.7 | 0.00 | 0.00 | 0.00 | 80 | 1021.1 |
| 20260506105645 | 13 | 60 | 0.0 | 0.0 | 0.00 | 0.00 | 0.00 | 80 | 1021.1 |
| 20260506105142 | 13 | 14 | 1.6 | 3.2 | 0.00 | 0.00 | 0.00 | 80 | 1021.1 |
| 20260506104641 | 13 | 204 | 3.2 | 6.4 | 0.00 | 0.00 | 0.00 | 80 | 1021.1 |
| 20260506104138 | 13 | 292 | 6.4 | 9.7 | 0.00 | 0.00 | 0.00 | 80 | 1020.9 |
| 20260506103635 | 13 | 277 | 1.6 | 3.2 | 0.00 | 0.00 | 0.00 | 80 | 1021.0 |
| 20260506103132 | 13 | 254 | 3.2 | 6.4 | 0.00 | 0.00 | 0.00 | 80 | 1021.3 |
| 20260506102630 | 13 | 328 | 1.6 | 4.8 | 0.00 | 0.00 | 0.00 | 81 | 1021.1 |
| 20260506102127 | 13 | 314 | 1.6 | 4.8 | 0.00 | 0.00 | 0.00 | 81 | 1020.9 |
| 20260506101624 | 13 | 346 | 0.0 | 0.0 | 0.00 | 0.00 | 0.00 | 81 | 1021.0 |
| 20260506101120 | 13 | 305 | 1.6 | 3.2 | 0.00 | 0.00 | 0.00 | 81 | 1021.2 |
| 20260506100619 | 13 | 341 | 1.6 | 3.2 | 0.00 | 0.00 | 0.00 | 81 | 1021.1 |
| 20260506100116 | 13 | 287 | 3.2 | 3.2 | 0.00 | 0.00 | 0.00 | 81 | 1021.1 |
| 20260506095615 | 13 | 352 | 0.0 | 11.3 | 0.00 | 0.00 | 0.00 | 81 | 1020.9 |
| 20260506095111 | 13 | 274 | 0.0 | 3.2 | 0.00 | 0.00 | 0.00 | 81 | 1021.2 |
| 20260506094609 | 13 | 3 | 0.0 | 6.4 | 0.00 | 0.00 | 0.00 | 81 | 1021.2 |
| 20260506094107 | 13 | 308 | 4.8 | 6.4 | 0.00 | 0.00 | 0.00 | 80 | 1020.9 |
| 20260506093605 | 13 | 254 | 3.2 | 4.8 | 0.00 | 0.00 | 0.00 | 81 | 1021.0 |
| 20260506093102 | 13 | 223 | 0.0 | 3.2 | 0.00 | 0.00 | 0.00 | 81 | 1020.9 |
| 20260506092600 | 13 | 354 | 0.0 | 3.2 | 0.00 | 0.00 | 0.00 | 80 | 1020.9 |
| 20260506092056 | 13 | 295 | 4.8 | 4.8 | 0.00 | 0.00 | 0.00 | 80 | 1020.9 |
| 20260506091555 | 13 | 349 | 0.0 | 4.8 | 0.00 | 0.00 | 0.00 | 80 | 1020.9 |
| 20260506091052 | 13 | 0 | 0.0 | 1.6 | 0.00 | 0.00 | 0.00 | 80 | 1021.0 |
| 20260506090549 | 13 | 356 | 1.6 | 3.2 | 0.00 | 0.00 | 0.00 | 80 | 1020.9 |
| 20260506090045 | 13 | 308 | 3.2 | 4.8 | 0.00 | 0.00 | 0.00 | 80 | 1021.1 |
| 20260506085543 | 13 | 219 | 1.6 | 4.8 | 0.00 | 0.00 | 0.00 | 80 | 1021.0 |
| 20260506085039 | 13 | 324 | 0.0 | 0.0 | 0.00 | 0.00 | 0.00 | 80 | 1021.1 |
| 20260506084536 | 13 | 334 | 0.0 | 4.8 | 0.00 | 0.00 | 0.00 | 80 | 1020.8 |
| 20260506084032 | 13 | 27 | 0.0 | 0.0 | 0.00 | 0.00 | 0.00 | 80 | 1021.0 |
| 20260506083529 | 13 | 19 | 0.0 | 1.6 | 0.00 | 0.00 | 0.00 | 80 | 1020.8 |
| 20260506083027 | 13 | 56 | 4.8 | 4.8 | 0.00 | 0.00 | 0.00 | 80 | 1020.8 |
| 20260506082523 | 13 | 12 | 3.2 | 3.2 | 0.00 | 0.00 | 0.00 | 80 | 1021.0 |
| 20260506082019 | 13 | 309 | 3.2 | 6.4 | 0.00 | 0.00 | 0.00 | 80 | 1020.9 |
| 20260506081517 | 13 | 29 | 0.0 | 0.0 | 0.00 | 0.00 | 0.00 | 81 | 1020.9 |
| 20260506081015 | 13 | 280 | 4.8 | 6.4 | 0.00 | 0.00 | 0.00 | 81 | 1020.7 |
| 20260506080512 | 13 | 38 | 0.0 | 9.7 | 0.00 | 0.00 | 0.00 | 81 | 1020.8 |
| 20260506073455 | 12 | 214 | 3.2 | 4.8 | 0.00 | 0.00 | 0.00 | 83 | 1020.5 |
| 20260506072952 | 12 | 178 | 8.0 | 11.3 | 0.00 | 0.00 | 0.00 | 82 | 1020.5 |
| 20260506072449 | 12 | 197 | 6.4 | 9.7 | 0.00 | 0.00 | 0.00 | 82 | 1020.5 |
| 20260506071947 | 12 | 209 | 4.8 | 6.4 | 0.00 | 0.00 | 0.00 | 82 | 1020.6 |
| 20260506071445 | 12 | 133 | 4.8 | 11.3 | 0.00 | 0.00 | 0.00 | 82 | 1020.5 |
| 20260506070942 | 12 | 1 | 3.2 | 9.7 | 0.00 | 0.00 | 0.00 | 83 | 1020.5 |
| 20260506070439 | 12 | 92 | 0.0 | 4.8 | 0.00 | 0.00 | 0.00 | 82 | 1020.3 |
| 20260506062417 | 13 | 200 | 3.2 | 11.3 | 0.00 | 0.00 | 0.00 | 82 | 1020.3 |
| 20260506061912 | 13 | 173 | 3.2 | 4.8 | 0.00 | 0.00 | 0.00 | 81 | 1020.2 |
| 20260506061409 | 13 | 218 | 0.0 | 12.9 | 0.00 | 0.00 | 0.00 | 81 | 1020.0 |
| 20260506060907 | 13 | 322 | 6.4 | 9.7 | 0.00 | 0.00 | 0.00 | 81 | 1020.1 |
| 20260506060405 | 13 | 302 | 1.6 | 3.2 | 0.00 | 0.00 | 0.00 | 80 | 1019.9 |
| 20260506051337 | 13 | 142 | 6.4 | 12.9 | 0.00 | 0.00 | 0.00 | 79 | 1019.4 |
| 20260506050834 | 13 | 161 | 11.3 | 16.1 | 0.00 | 0.00 | 0.00 | 79 | 1019.3 |
| 20260506050331 | 13 | 167 | 6.4 | 16.1 | 0.00 | 0.00 | 0.00 | 79 | 1019.3 |
| 20260506044822 | 13 | 208 | 11.3 | 22.5 | 0.00 | 0.00 | 0.00 | 78 | 1019.3 |
| 20260506044320 | 13 | 216 | 9.7 | 20.9 | 0.00 | 0.00 | 0.00 | 79 | 1019.4 |
| 20260506043816 | 13 | 182 | 8.0 | 16.1 | 0.00 | 0.00 | 0.00 | 79 | 1019.2 |
| 20260506043314 | 13 | 223 | 4.8 | 12.9 | 0.00 | 0.00 | 0.00 | 79 | 1019.2 |
| 20260506042812 | 13 | 178 | 8.0 | 12.9 | 0.00 | 0.00 | 0.00 | 79 | 1019.1 |
| 20260506042311 | 14 | 194 | 12.9 | 16.1 | 0.00 | 0.00 | 0.00 | 79 | 1019.1 |
| 20260506041809 | 14 | 189 | 16.1 | 22.5 | 0.00 | 0.00 | 0.00 | 79 | 1018.8 |
| 20260506041306 | 14 | 189 | 6.4 | 17.7 | 0.00 | 0.00 | 0.00 | 79 | 1019.0 |
| 20260506040803 | 14 | 269 | 6.4 | 11.3 | 0.00 | 0.00 | 0.00 | 78 | 1018.9 |
| 20260506040300 | 14 | 228 | 9.7 | 12.9 | 0.00 | 0.00 | 0.00 | 78 | 1018.7 |
| 20260506035756 | 14 | 224 | 12.9 | 17.7 | 0.00 | 0.00 | 0.00 | 77 | 1018.7 |
| 20260506035254 | 14 | 187 | 3.2 | 14.5 | 0.00 | 0.00 | 0.00 | 77 | 1018.8 |
| 20260506034751 | 15 | 211 | 8.0 | 11.3 | 0.00 | 0.00 | 0.00 | 77 | 1018.7 |
| 20260506034248 | 15 | 139 | 4.8 | 12.9 | 0.00 | 0.00 | 0.00 | 76 | 1018.7 |
| 20260506033745 | 15 | 197 | 9.7 | 16.1 | 0.00 | 0.00 | 0.00 | 76 | 1018.4 |
| 20260506033242 | 15 | 167 | 6.4 | 14.5 | 0.00 | 0.00 | 0.00 | 76 | 1018.4 |
| 20260506032739 | 15 | 227 | 8.0 | 12.9 | 0.00 | 0.00 | 0.00 | 76 | 1018.4 |
| 20260506032236 | 15 | 186 | 6.4 | 16.1 | 0.00 | 0.00 | 0.00 | 75 | 1018.1 |
| 20260506031732 | 15 | 193 | 6.4 | 16.1 | 0.00 | 0.00 | 0.00 | 75 | 1018.2 |
| 20260506031230 | 15 | 134 | 6.4 | 12.9 | 0.00 | 0.00 | 0.00 | 75 | 1018.1 |
| 20260506030728 | 15 | 244 | 11.3 | 14.5 | 0.00 | 0.00 | 0.00 | 75 | 1018.1 |
| 20260506030225 | 15 | 167 | 9.7 | 16.1 | 0.00 | 0.00 | 0.00 | 75 | 1018.2 |
| 20260506025722 | 15 | 190 | 6.4 | 12.9 | 0.00 | 0.00 | 0.00 | 75 | 1018.2 |
| 20260506025218 | 15 | 201 | 3.2 | 12.9 | 0.00 | 0.00 | 0.00 | 75 | 1017.9 |
| 20260506024715 | 15 | 284 | 6.4 | 12.9 | 0.00 | 0.00 | 0.00 | 75 | 1017.9 |
| 20260506024212 | 15 | 130 | 6.4 | 16.1 | 0.00 | 0.00 | 0.00 | 75 | 1018.0 |
| 20260506023708 | 15 | 245 | 8.0 | 14.5 | 0.00 | 0.00 | 0.00 | 75 | 1017.7 |
| 20260506023205 | 15 | 217 | 8.0 | 14.5 | 0.00 | 0.00 | 0.00 | 75 | 1017.9 |
| 20260506022702 | 15 | 178 | 4.8 | 16.1 | 0.00 | 0.00 | 0.00 | 75 | 1017.6 |
| 20260506022200 | 15 | 229 | 4.8 | 11.3 | 0.00 | 0.00 | 0.00 | 75 | 1017.5 |
| 20260506021658 | 16 | 204 | 8.0 | 14.5 | 0.00 | 0.00 | 0.00 | 75 | 1017.5 |
| 20260506021154 | 16 | 127 | 0.0 | 4.8 | 0.00 | 0.00 | 0.00 | 75 | 1017.8 |
| 20260506020651 | 16 | 275 | 4.8 | 12.9 | 0.00 | 0.00 | 0.00 | 75 | 1017.5 |
| 20260506020149 | 16 | 218 | 6.4 | 12.9 | 0.00 | 0.00 | 0.00 | 74 | 1017.5 |
| 20260506015646 | 16 | 111 | 4.8 | 11.3 | 0.00 | 0.00 | 0.00 | 74 | 1017.6 |
| 20260506015143 | 16 | 187 | 11.3 | 14.5 | 0.00 | 0.00 | 0.00 | 74 | 1017.4 |
| 20260506014635 | 16 | 168 | 6.4 | 14.5 | 0.00 | 0.00 | 0.00 | 74 | 1017.6 |
| 20260506014131 | 16 | 190 | 4.8 | 9.7 | 0.00 | 0.00 | 0.00 | 73 | 1017.5 |
| 20260506013629 | 16 | 216 | 6.4 | 11.3 | 0.00 | 0.00 | 0.00 | 73 | 1017.4 |
| 20260506013126 | 16 | 208 | 9.7 | 14.5 | 0.00 | 0.00 | 0.00 | 73 | 1017.5 |
| 20260506012621 | 17 | 184 | 6.4 | 11.3 | 0.00 | 0.00 | 0.00 | 73 | 1017.3 |
| 20260506012118 | 17 | 150 | 6.4 | 11.3 | 0.00 | 0.00 | 0.00 | 73 | 1017.4 |
| 20260506011616 | 17 | 179 | 4.8 | 9.7 | 0.00 | 0.00 | 0.00 | 72 | 1017.2 |
| 20260506011112 | 17 | 202 | 6.4 | 14.5 | 0.00 | 0.00 | 0.00 | 72 | 1017.4 |
| 20260506010606 | 17 | 205 | 8.0 | 16.1 | 0.00 | 0.00 | 0.00 | 72 | 1017.3 |
| 20260506005559 | 17 | 197 | 4.8 | 9.7 | 0.00 | 0.00 | 0.00 | 71 | 1017.4 |
| 20260506005055 | 18 | 248 | 4.8 | 9.7 | 0.00 | 0.00 | 0.00 | 68 | 1017.1 |
| 20260506004547 | 18 | 234 | 3.2 | 9.7 | 0.00 | 0.00 | 0.00 | 68 | 1017.3 |
| 20260506004043 | 18 | 246 | 8.0 | 12.9 | 0.00 | 0.00 | 0.00 | 68 | 1017.2 |
| 20260506003540 | 18 | 148 | 6.4 | 17.7 | 0.00 | 0.00 | 0.00 | 69 | 1017.4 |
| 20260506003036 | 17 | 149 | 6.4 | 9.7 | 0.00 | 0.00 | 0.00 | 69 | 1017.2 |
| 20260506002532 | 17 | 216 | 6.4 | 11.3 | 0.00 | 0.00 | 0.00 | 69 | 1017.3 |
| 20260506002028 | 17 | 206 | 6.4 | 12.9 | 0.00 | 0.00 | 0.00 | 69 | 1017.1 |
| 20260506001525 | 17 | 144 | 3.2 | 9.7 | 0.00 | 0.00 | 0.00 | 69 | 1017.1 |
| 20260506001022 | 18 | 246 | 6.4 | 11.3 | 0.00 | 0.00 | 0.00 | 69 | 1017.1 |
| 20260506000520 | 17 | 170 | 4.8 | 11.3 | 0.00 | 0.00 | 0.00 | 69 | 1017.2 |
| 20260506000017 | 18 | 153 | 4.8 | 14.5 | 0.00 | 0.00 | 0.00 | 69 | 1017.3 |
| 20260505235515 | 17 | 203 | 3.2 | 4.8 | 0.00 | 0.00 | 0.00 | 69 | 1017.3 |
| 20260505235011 | 17 | 229 | 4.8 | 12.9 | 0.00 | 0.00 | 0.00 | 70 | 1017.3 |
| 20260505234508 | 18 | 239 | 6.4 | 9.7 | 0.00 | 0.00 | 0.00 | 69 | 1017.2 |
| 20260505234005 | 17 | 189 | 4.8 | 6.4 | 0.00 | 0.00 | 0.00 | 70 | 1017.1 |
| 20260505233503 | 17 | 103 | 9.7 | 12.9 | 0.00 | 0.00 | 0.00 | 71 | 1017.3 |
| 20260505233000 | 17 | 206 | 6.4 | 9.7 | 0.00 | 0.00 | 0.00 | 72 | 1017.2 |
| 20260505232458 | 17 | 165 | 14.5 | 17.7 | 0.00 | 0.00 | 0.00 | 72 | 1017.3 |
| 20260505231954 | 17 | 223 | 6.4 | 9.7 | 0.00 | 0.00 | 0.00 | 72 | 1017.3 |
| 20260505231452 | 17 | 281 | 3.2 | 14.5 | 0.00 | 0.00 | 0.00 | 72 | 1017.5 |
| 20260505230950 | 17 | 306 | 3.2 | 11.3 | 0.00 | 0.00 | 0.00 | 72 | 1017.4 |
| 20260505230447 | 17 | 196 | 6.4 | 12.9 | 0.00 | 0.00 | 0.00 | 72 | 1017.3 |
| 20260505225943 | 17 | 215 | 3.2 | 4.8 | 0.00 | 0.00 | 0.00 | 73 | 1017.4 |
| 20260505225441 | 17 | 256 | 4.8 | 12.9 | 0.00 | 0.00 | 0.00 | 72 | 1017.3 |
| 20260505224937 | 17 | 213 | 0.0 | 11.3 | 0.00 | 0.00 | 0.00 | 73 | 1017.4 |
| 20260505224434 | 17 | 144 | 4.8 | 12.9 | 0.00 | 0.00 | 0.00 | 72 | 1017.4 |
| 20260505223931 | 17 | 137 | 3.2 | 4.8 | 0.00 | 0.00 | 0.00 | 72 | 1017.4 |
| 20260505223427 | 17 | 198 | 3.2 | 9.7 | 0.00 | 0.00 | 0.00 | 71 | 1017.4 |
| 20260505222924 | 17 | 202 | 3.2 | 6.4 | 0.00 | 0.00 | 0.00 | 70 | 1017.4 |
| 20260505222420 | 17 | 101 | 0.0 | 9.7 | 0.00 | 0.00 | 0.00 | 71 | 1017.6 |
| 20260505221916 | 17 | 202 | 1.6 | 3.2 | 0.00 | 0.00 | 0.00 | 71 | 1017.5 |
| 20260505221414 | 17 | 207 | 6.4 | 9.7 | 0.00 | 0.00 | 0.00 | 71 | 1017.4 |
| 20260505220911 | 17 | 199 | 4.8 | 11.3 | 0.00 | 0.00 | 0.00 | 71 | 1017.5 |
| 20260505220408 | 17 | 288 | 6.4 | 9.7 | 0.00 | 0.00 | 0.00 | 70 | 1017.6 |
| 20260505215905 | 17 | 220 | 8.0 | 11.3 | 0.00 | 0.00 | 0.00 | 71 | 1017.3 |
| 20260505215403 | 17 | 172 | 3.2 | 6.4 | 0.00 | 0.00 | 0.00 | 71 | 1017.7 |
| 20260505214901 | 17 | 186 | 3.2 | 6.4 | 0.00 | 0.00 | 0.00 | 71 | 1017.7 |
| 20260505214358 | 18 | 219 | 3.2 | 4.8 | 0.00 | 0.00 | 0.00 | 70 | 1017.5 |
| 20260505213855 | 17 | 184 | 3.2 | 4.8 | 0.00 | 0.00 | 0.00 | 69 | 1017.7 |
| 20260505213353 | 17 | 255 | 1.6 | 9.7 | 0.00 | 0.00 | 0.00 | 71 | 1017.8 |
| 20260505212849 | 16 | 210 | 3.2 | 6.4 | 0.00 | 0.00 | 0.00 | 74 | 1017.8 |
| 20260505212346 | 16 | 182 | 4.8 | 6.4 | 0.00 | 0.00 | 0.00 | 74 | 1017.9 |
| 20260505211842 | 16 | 114 | 3.2 | 11.3 | 0.00 | 0.00 | 0.00 | 75 | 1017.7 |
| 20260505211340 | 16 | 1 | 3.2 | 9.7 | 0.00 | 0.00 | 0.00 | 74 | 1017.8 |
| 20260505210836 | 16 | 179 | 1.6 | 14.5 | 0.00 | 0.00 | 0.00 | 75 | 1017.7 |
| 20260505210333 | 16 | 215 | 6.4 | 11.3 | 0.00 | 0.00 | 0.00 | 73 | 1017.6 |
| 20260505205830 | 17 | 195 | 6.4 | 9.7 | 0.00 | 0.00 | 0.00 | 72 | 1017.8 |
| 20260505205328 | 17 | 267 | 1.6 | 4.8 | 0.00 | 0.00 | 0.00 | 72 | 1017.7 |
| 20260505204825 | 17 | 179 | 6.4 | 9.7 | 0.00 | 0.00 | 0.00 | 72 | 1017.9 |
| 20260505204323 | 16 | 232 | 3.2 | 9.7 | 0.00 | 0.00 | 0.00 | 73 | 1018.0 |
| 20260505203820 | 17 | 180 | 8.0 | 11.3 | 0.00 | 0.00 | 0.00 | 72 | 1017.9 |
| 20260505203316 | 17 | 233 | 6.4 | 6.4 | 0.00 | 0.00 | 0.00 | 72 | 1018.2 |
| 20260505202813 | 16 | 220 | 3.2 | 9.7 | 0.00 | 0.00 | 0.00 | 74 | 1017.9 |
| 20260505202308 | 16 | 203 | 6.4 | 9.7 | 0.00 | 0.00 | 0.00 | 74 | 1018.1 |
| 20260505201800 | 16 | 335 | 0.0 | 6.4 | 0.00 | 0.00 | 0.00 | 74 | 1018.1 |
| 20260505201257 | 16 | 220 | 3.2 | 4.8 | 0.00 | 0.00 | 0.00 | 75 | 1018.1 |
| 20260505200756 | 16 | 175 | 3.2 | 4.8 | 0.00 | 0.00 | 0.00 | 76 | 1017.9 |
| 20260505200252 | 16 | 13 | 1.6 | 9.7 | 0.00 | 0.00 | 0.00 | 76 | 1018.3 |
| 20260505195747 | 15 | 268 | 3.2 | 11.3 | 0.00 | 0.00 | 0.00 | 76 | 1018.1 |
| 20260505195245 | 15 | 320 | 4.8 | 11.3 | 0.00 | 0.00 | 0.00 | 76 | 1018.2 |
| 20260505194742 | 16 | 161 | 1.6 | 9.7 | 0.00 | 0.00 | 0.00 | 77 | 1018.2 |
| 20260505194239 | 16 | 244 | 3.2 | 11.3 | 0.00 | 0.00 | 0.00 | 76 | 1018.3 |
| 20260505193734 | 16 | 255 | 1.6 | 14.5 | 0.00 | 0.00 | 0.00 | 76 | 1018.1 |
| 20260505193232 | 16 | 327 | 6.4 | 9.7 | 0.00 | 0.00 | 0.00 | 75 | 1018.1 |
| 20260505192730 | 16 | 230 | 8.0 | 9.7 | 0.00 | 0.00 | 0.00 | 74 | 1018.2 |
| 20260505192228 | 16 | 328 | 4.8 | 9.7 | 0.00 | 0.00 | 0.00 | 74 | 1018.3 |
| 20260505191726 | 16 | 29 | 1.6 | 6.4 | 0.00 | 0.00 | 0.00 | 75 | 1018.0 |
| 20260505191224 | 16 | 233 | 4.8 | 12.9 | 0.00 | 0.00 | 0.00 | 74 | 1017.9 |
| 20260505190720 | 16 | 213 | 6.4 | 11.3 | 0.00 | 0.00 | 0.00 | 74 | 1017.9 |
| 20260505190220 | 16 | 355 | 4.8 | 9.7 | 0.00 | 0.00 | 0.00 | 74 | 1018.1 |
| 20260505185716 | 17 | 233 | 4.8 | 11.3 | 0.00 | 0.00 | 0.00 | 73 | 1018.2 |
| 20260505185213 | 16 | 123 | 0.0 | 6.4 | 0.00 | 0.00 | 0.00 | 73 | 1018.1 |
| 20260505184709 | 16 | 288 | 3.2 | 11.3 | 0.00 | 0.00 | 0.00 | 76 | 1018.2 |
| 20260505184207 | 16 | 293 | 3.2 | 12.9 | 0.00 | 0.00 | 0.00 | 76 | 1018.0 |
| 20260505183703 | 15 | 42 | 1.6 | 6.4 | 0.00 | 0.00 | 0.00 | 77 | 1018.2 |
| 20260505183201 | 15 | 143 | 1.6 | 9.7 | 0.00 | 0.00 | 0.00 | 79 | 1018.0 |
| 20260505182656 | 15 | 266 | 4.8 | 9.7 | 0.00 | 0.00 | 0.00 | 78 | 1018.1 |
| 20260505182154 | 15 | 230 | 3.2 | 9.7 | 0.00 | 0.00 | 0.00 | 79 | 1017.9 |
| 20260505181650 | 15 | 197 | 3.2 | 12.9 | 0.00 | 0.00 | 0.00 | 78 | 1017.9 |
| 20260505181148 | 15 | 146 | 1.6 | 9.7 | 0.00 | 0.00 | 0.00 | 79 | 1017.8 |
| 20260505180644 | 15 | 224 | 3.2 | 9.7 | 0.00 | 0.00 | 0.00 | 79 | 1017.8 |
| 20260505180142 | 15 | 204 | 4.8 | 6.4 | 0.00 | 0.00 | 0.00 | 80 | 1017.9 |
| 20260505175637 | 15 | 241 | 6.4 | 12.9 | 0.00 | 0.00 | 0.00 | 81 | 1017.8 |
| 20260505175134 | 15 | 131 | 8.0 | 9.7 | 0.00 | 0.00 | 0.00 | 81 | 1018.0 |
| 20260505174631 | 15 | 253 | 8.0 | 12.9 | 0.00 | 0.00 | 0.00 | 81 | 1017.7 |
| 20260505174127 | 15 | 177 | 6.4 | 9.7 | 0.00 | 0.00 | 0.00 | 81 | 1017.8 |
| 20260505173624 | 14 | 281 | 3.2 | 9.7 | 0.00 | 0.00 | 0.00 | 82 | 1017.7 |
| 20260505173120 | 13 | 167 | 3.2 | 12.9 | 0.00 | 0.00 | 0.00 | 84 | 1017.6 |
| 20260505172618 | 14 | 30 | 6.4 | 11.3 | 0.00 | 0.00 | 0.00 | 84 | 1017.5 |
| 20260505172115 | 14 | 50 | 1.6 | 9.7 | 0.00 | 0.00 | 0.00 | 84 | 1017.4 |
| 20260505171609 | 13 | 213 | 6.4 | 12.9 | 0.00 | 0.00 | 0.00 | 85 | 1017.7 |
| 20260505171107 | 13 | 193 | 3.2 | 4.8 | 0.00 | 0.00 | 0.00 | 86 | 1017.5 |
| 20260505170604 | 13 | 330 | 1.6 | 9.7 | 0.00 | 0.00 | 0.00 | 87 | 1017.7 |
| 20260505170100 | 13 | 242 | 4.8 | 9.7 | 0.00 | 0.00 | 0.00 | 88 | 1017.5 |
| 20260505165554 | 13 | 222 | 3.2 | 6.4 | 0.00 | 0.00 | 0.00 | 88 | 1017.8 |
| 20260505165050 | 13 | 238 | 3.2 | 9.7 | 0.00 | 0.00 | 0.00 | 88 | 1017.8 |
| 20260505164541 | 13 | 185 | 8.0 | 12.9 | 0.00 | 0.00 | 0.00 | 88 | 1017.8 |
| 20260505164039 | 13 | 193 | 4.8 | 6.4 | 0.00 | 0.00 | 0.00 | 89 | 1017.7 |
| 20260505163537 | 12 | 184 | 3.2 | 11.3 | 0.00 | 0.00 | 0.00 | 90 | 1017.8 |
| 20260505163033 | 12 | 330 | 3.2 | 3.2 | 0.00 | 0.00 | 0.00 | 90 | 1017.9 |
| 20260505162527 | 12 | 349 | 0.0 | 3.2 | 0.00 | 0.00 | 0.00 | 90 | 1017.7 |
| 20260505162024 | 12 | 17 | 1.6 | 9.7 | 0.00 | 0.00 | 0.00 | 90 | 1017.6 |
| 20260505161520 | 12 | 251 | 3.2 | 6.4 | 0.00 | 0.00 | 0.00 | 90 | 1017.7 |
| 20260505161017 | 12 | 85 | 0.0 | 1.6 | 0.00 | 0.00 | 0.00 | 91 | 1017.5 |
| 20260505160515 | 12 | 267 | 1.6 | 11.3 | 0.00 | 0.00 | 0.00 | 90 | 1017.6 |